Powrót do katalogu

METEOR 2-7

AktywnyPogodaPO
NORAD 12456·PAYLOAD·🇷🇺 Russia

Wystrzelony May 14, 1981 z Plesetsk Cosmodrome

Loading…

Następne Przeloty (najbliższe 24 godziny)

TLE

ŚwieżeSource: Space-Track

Epoka: Sep 14, 2026, 14:41 UTC

1 12456U 81043A   26257.61182120  .00000059  00000-0  25917-4 0  9999
2 12456  81.2689  12.0954 0046491 236.2697 123.4040 14.11068864331666

Śledź METEOR 2-7 w czasie rzeczywistym z AllMySat

Download on the App Store